Location: Unspecified
(0.0000°N, 0.0000°E)
Time: 20:32:02
(UTC+00:00)

deb r/b Ablestar - Pass Details

Date: 08 March 2026
Orbit: 827 x 964 km, 67.7° (Epoch: 11 April)

Event Time Altitude Azimuth Distance (km) Brightness Sun altitude
Rises 19:27:40 0° 359° (N) 3,438 ? -19.2°
Reaches altitude 10° 19:30:19 10° 8° (N) 2,524 ? -19.8°
Enters shadow 19:34:20 31° 48° (NE) 1,506 ? -20.8°
